Zurück zum Katalog

COSMOS 2587

AktivNavigationPO
NORAD 63290·PAYLOAD·🇷🇺 Russia

Gestartet Mar 16, 2025 von Plesetsk Cosmodrome

Loading…

Nächste Überflüge (nächste 24 Stunden)

TLE

AktuellSource: Space-Track

Epoche: Sep 14, 2026, 04:42 UTC

1 63290U 25054C   26257.19606127  .00000006  00000-0 -30315-4 0  9993
2 63290  82.5015  23.3219 0015241 174.8202 185.3038 12.42895752 67916

Verfolge COSMOS 2587 in Echtzeit mit AllMySat

Download on the App Store